Location: Hurecourt
(47.9030°N, 6.0653°E)
Time: 08:51:20
(UTC+00:00)

Cosmos 1378 Rocket - Pass Details

Date: 14 July 2020
Orbit: 602 x 626 km, 82.5° (Epoch: 14 August)

Event Time Altitude Azimuth Distance (km) Brightness Sun altitude
Rises 02:15:56 0° 351° (N) 2,901 7.7 -12.3°
Reaches altitude 10° 02:18:10 10° 353° (N) 1,994 6.9 -12.1°
Maximum altitude 02:22:36 79° 81° (E) 639 3.7 -11.7°
Drops below altitude 10° 02:27:01 10° 168° (SSE) 1,990 5.8 -11.2°
Enters shadow 02:28:31 - 169° (SSE) 2,599 6.4 -11.1°
